Location: Christian Reformed Church
(43.0975°N, 93.8113°W)
Time: 21:11:14
(UTC+00:00)

Thor Agena Rocket - Visible Passes

Search period start: 16 March 2026 00:00
Search period end: 26 March 2026 00:00
Orbit: 755 x 801 km, 99.1° (Epoch: 15 March)

Date Brightness Start Highest point End Pass type
(mag) Time Alt. Az. Time Alt. Az. Time Alt. Az.
17 Mar 6.8 01:32:12 10° WSW 01:34:40 13° W 01:37:09 10° WNW visible
18 Mar 6.1 00:56:58 10° SSW 01:01:22 27° W 01:05:48 10° NW visible
18 Mar 7.2 11:29:52 10° ENE 11:31:18 11° E 11:32:43 10° ESE visible
20 Mar 6.8 01:32:30 10° WSW 01:35:02 13° W 01:37:33 10° WNW visible
21 Mar 6.1 00:57:19 10° SSW 01:01:44 27° W 01:06:11 10° NW visible
21 Mar 7.2 11:30:22 10° ENE 11:31:39 11° E 11:32:55 10° ESE visible
23 Mar 6.8 01:32:49 10° WSW 01:35:23 14° W 01:37:58 10° WNW visible
24 Mar 6.1 00:57:39 10° SSW 01:02:05 27° W 01:06:33 10° NW visible
24 Mar 7.2 11:30:52 10° ENE 11:31:59 11° E 11:33:05 10° E visible
